, AK

(GMT )
Deadhorse

Weather History for PASC - July, 2013

Change the Weather History Date:

Sunday, July 14, 2013

  Actual Average Record
Temperature  
Mean Temperature 44 °F -  
Max Temperature 48 °F 53 °F 82 °F (2016)
Min Temperature 39 °F 38 °F 30 °F (1992)
Degree Days  
Heating Degree Days 22    
Moisture  
Dew Point 38 °F    
Average Humidity 81    
Maximum Humidity 97    
Minimum Humidity 66    
Precipitation  
Precipitation 0.00 in - - ()
Sea Level Pressure  
Sea Level Pressure 30.13 in    
Wind  
Wind Speed 16 mph (ENE)    
Max Wind Speed 24 mph    
Max Gust Speed 28 mph    
Visibility 10 miles    
Events      
Averages and records for this station are not official NWS values.
T = Trace of Precipitation, MM = Missing Value Source: NWS Daily Summary

Daily Weather History Graph

Daily Weather History Graph

Search for Another Location

Airport or City:

Trip Planner

Search our weather history database for the weather conditions in past years. The results will help you decide how hot, cold, wet, or windy it might be!

Date:

Astronomy

Dec. 31, 1969 Rise Set
Actual Time Sun does not set Sun does not set
Civil Twilight Sun does not set Sun does not set
Nautical Twilight Sun does not set Sun does not set
Astronomical Twilight Sun does not set Sun does not set
Moon 1:53 PM AKDT (7/14) 11:36 PM AKDT (7/14)
Length of Visible Light 24h 00m
Length of Day
24h 00m
Waxing Crescent, 36% of the Moon is Illuminated
Jul 14
Waxing Crescent
Jul 15
First Quarter
Jul 22
Full
Jul 29
Last Quarter
Aug 6
New

Hourly Weather History & Observations

Time (AKDT) Temp. Windchill Dew Point Humidity Pressure Visibility Wind Dir Wind Speed Gust Speed Precip Events Conditions
12:53 AM 39.9 °F 31.8 °F 37.0 °F 89% 30.12 in 10.0 mi ENE 15.0 mph - N/A   Clear
1:53 AM 39.9 °F 32.5 °F 37.0 °F 89% 30.13 in 10.0 mi ENE 12.7 mph - N/A   Partly Cloudy
2:53 AM 39.0 °F 31.4 °F 37.0 °F 93% 30.12 in 10.0 mi ENE 12.7 mph - N/A   Clear
3:53 AM 39.0 °F 31.4 °F 37.9 °F 96% 30.13 in 10.0 mi ENE 12.7 mph - N/A   Partly Cloudy
4:30 AM 39.2 °F 31.6 °F 37.4 °F 93% 30.13 in 10.0 mi ENE 12.7 mph - N/A   Scattered Clouds
4:53 AM 39.9 °F 32.5 °F 39.0 °F 97% 30.13 in 10.0 mi ENE 12.7 mph - N/A   Scattered Clouds
5:53 AM 41.0 °F 33.5 °F 37.9 °F 89% 30.13 in 10.0 mi ENE 13.8 mph - N/A   Scattered Clouds
6:53 AM 43.0 °F 35.4 °F 39.0 °F 86% 30.12 in 10.0 mi ENE 16.1 mph - N/A   Clear
7:53 AM 44.1 °F 36.8 °F 39.9 °F 85% 30.12 in 10.0 mi East 16.1 mph - N/A   Clear
8:53 AM 43.0 °F 36.0 °F 39.0 °F 86% 30.13 in 10.0 mi East 13.8 mph - N/A   Clear
9:53 AM 43.0 °F 35.1 °F 39.0 °F 86% 30.13 in 10.0 mi ENE 17.3 mph - N/A   Clear
9:55 AM 42.8 °F 34.5 °F 39.2 °F 87% 30.13 in 10.0 mi ENE 18.4 mph - N/A   Scattered Clouds
10:53 AM 45.0 °F 37.4 °F 39.0 °F 80% 30.13 in 10.0 mi ENE 18.4 mph - N/A   Clear
11:53 AM 46.0 °F 39.3 °F 39.0 °F 76% 30.13 in 10.0 mi ENE 16.1 mph - N/A   Clear
12:53 PM 46.0 °F 38.5 °F 37.9 °F 73% 30.14 in 10.0 mi ENE 19.6 mph 24.2 mph N/A   Clear
1:53 PM 46.9 °F - 39.0 °F 74% 30.14 in 10.0 mi ENE 17.3 mph - N/A   Clear
2:53 PM 48.0 °F - 39.0 °F 71% 30.14 in 10.0 mi ENE 19.6 mph - N/A   Clear
3:53 PM 48.0 °F - 37.0 °F 66% 30.13 in 10.0 mi ENE 21.9 mph - N/A   Clear
4:53 PM 48.9 °F - 37.9 °F 66% 30.13 in 10.0 mi East 19.6 mph - N/A   Clear
5:53 PM 48.9 °F - 39.0 °F 69% 30.12 in 10.0 mi East 23.0 mph - N/A   Clear
6:53 PM 48.9 °F - 39.0 °F 69% 30.11 in 10.0 mi ENE 24.2 mph 27.6 mph N/A   Clear
7:53 PM 48.0 °F - 39.0 °F 71% 30.11 in 10.0 mi East 21.9 mph - N/A   Clear
8:53 PM 46.9 °F - 39.0 °F 74% 30.11 in 10.0 mi East 18.4 mph - N/A   Clear
9:53 PM 46.0 °F 38.8 °F 39.0 °F 76% 30.11 in 10.0 mi East 18.4 mph - N/A   Mostly Cloudy
10:53 PM 44.1 °F 36.5 °F 39.0 °F 82% 30.11 in 10.0 mi East 17.3 mph - N/A   Mostly Cloudy
11:53 PM 42.1 °F 34.2 °F 37.9 °F 85% 30.12 in 10.0 mi East 16.1 mph - N/A   Mostly Cloudy